Flag for Belarus Weather past 2 weeks in Minsk, Belarus

Now
30 °F

Low clouds.


Feels Like: 27 °F
Forecast: 28 / 32 °F
Wind: 3 mph from South

Location: Minsk

Current Time: Jan 28, 2015 at 5:02:23 AM

Latest Report: Jan 28, 2015 at 4:30 AM


Visibility: 4 mi

Pressure: 29.86 "Hg

Humidity: 100%

Dew point: 30 °F

Location of MinskLocation

Historic Weather in Minsk — Graph

°F

Minsk temperature yesterday

Maximum temperature yesterday: 30 °F (at 1:30 PM)
Minimum temperature yesterday: 28 °F (at 12:00 AM)
Average temperature yesterday: 29 °F

Past Weeks' High & Low Weather Summary

 TemperatureHumidityPressure
High39 °F (Jan 13, 11:30 AM)100% (Jan 13, 4:00 AM)30.24 "Hg (Jan 13, 4:00 AM)
Low19 °F (Jan 25, 9:30 PM)69% (Jan 20, 2:00 PM)29.59 "Hg (Jan 13, 7:00 AM)
Average30 °F97%30.03 "Hg
* Reported Jan 13 4:00 AM — Jan 28 4:00 AM, Minsk, Weather by CustomWeather, © 2014

Note: Actual official high and low records may vary slightly from our data, if they occured in-between our weather recording intervals... More about our weather records

Advertising

Minsk weather history for previous 24 hours

 ConditionsComfort  
Time TempWeatherWind HumidityBarometerVisibility
4:00 AM
Jan 28
30 °FLow clouds.6 mph100%29.86 "Hg4 mi
3:30 AM30 °FLow clouds.3 mph100%29.86 "Hg4 mi
3:00 AM30 °FLow clouds.3 mph100%29.86 "Hg4 mi
2:30 AM30 °FLow clouds.6 mph100%29.86 "Hg4 mi
2:00 AM30 °FLow clouds.3 mph100%29.89 "Hg5 mi
1:30 AM28 °FLow clouds.6 mph100%29.89 "Hg6 mi
1:00 AM28 °FLow clouds.6 mph100%29.89 "Hg5 mi
12:30 AM28 °FLow clouds.6 mph100%29.89 "Hg5 mi
12:00 AM28 °FLight snow. Low clouds.6 mph100%29.92 "Hg5 mi
11:30 PM
Jan 27
28 °FLight snow. Low clouds.3 mph100%29.92 "Hg3 mi
11:00 PM28 °FLight snow. Low clouds.6 mph100%29.92 "Hg4 mi
10:30 PM28 °FLow clouds.6 mph100%29.92 "HgN/A
10:00 PM28 °FLow clouds.8 mph100%29.92 "HgN/A
9:30 PM28 °FLow clouds.6 mph100%29.92 "HgN/A
9:00 PM28 °FLow clouds.6 mph100%29.92 "HgN/A
8:30 PM28 °FLight snow. Low clouds.6 mph100%29.92 "HgN/A
8:00 PM28 °FLow clouds.8 mph100%29.95 "HgN/A
7:30 PM28 °FLow clouds.6 mph100%29.95 "HgN/A
7:00 PM28 °FLight snow. Low clouds.6 mph100%29.95 "Hg4 mi
6:30 PM28 °FSnow flurries. Mostly cloudy.6 mph100%29.95 "Hg3 mi
6:03 PM28 °FSnow flurries. Mostly cloudy.6 mph100%29.95 "Hg2 mi
5:30 PM28 °FSnow flurries. Mostly cloudy.8 mph100%29.95 "Hg2 mi
5:00 PM28 °FLight snow. Overcast.6 mph100%29.95 "HgN/A
4:30 PM28 °FLight snow. Overcast.8 mph100%29.95 "HgN/A
4:00 PM28 °FLight snow. Overcast.8 mph100%29.95 "HgN/A
3:30 PM30 °FLight snow. Overcast.8 mph93%29.95 "Hg6 mi
3:00 PM30 °FLight snow. Overcast.6 mph93%29.95 "HgN/A
2:54 PM30 °FLight snow. Overcast.6 mph93%29.95 "HgN/A
2:30 PM30 °FLight snow. More clouds than sun.8 mph93%29.95 "Hg6 mi
2:00 PM30 °FLight snow. Mostly cloudy.8 mph93%29.95 "HgN/A
1:30 PM30 °FLight snow. Ice fog.8 mph93%29.95 "Hg3 mi
1:00 PM28 °FSnow flurries. Ice fog.8 mph100%29.95 "Hg3 mi
12:56 PM28 °FSnow flurries. Ice fog.8 mph100%29.98 "Hg3 mi
12:30 PM28 °FLight snow. Ice fog.8 mph100%29.98 "Hg2 mi
12:00 PM28 °FLight snow. Mostly cloudy.8 mph100%29.98 "Hg4 mi
11:30 AM28 °FLight snow. Mostly cloudy.6 mph100%29.98 "Hg4 mi
11:00 AM28 °FLight snow. Partly sunny.6 mph100%29.98 "Hg5 mi
10:30 AM28 °FLight snow. Partly sunny.6 mph100%29.98 "Hg4 mi
10:00 AM28 °FLight snow. Mostly cloudy.6 mph100%29.98 "Hg4 mi
9:30 AM28 °FLight snow. Mostly cloudy.6 mph100%29.98 "Hg4 mi
9:00 AM28 °FLight snow. Ice fog.6 mph100%29.98 "Hg2 mi
8:50 AM28 °FLight snow. Ice fog.3 mph100%29.98 "Hg3 mi
8:30 AM28 °FLight snow. Ice fog.3 mph100%29.98 "Hg2 mi
8:00 AM28 °FLight snow. Ice fog.6 mph100%29.98 "Hg2 mi
7:00 AM28 °FLight snow. Ice fog.3 mph100%29.98 "Hg1 mi
6:30 AM28 °FLight snow. Ice fog.3 mph100%30.01 "Hg2 mi
5:30 AM28 °FLight snow. Mostly cloudy.6 mph100%30.01 "Hg5 mi
5:00 AM28 °FLight snow. Mostly cloudy.3 mph100%30.01 "Hg5 mi
Weather by CustomWeather, © 2014

See weather overviewHow to use our weather pages